Voltar ao catálogo

OPS 7329

AtivoNavegaçãoMEO
NORAD 4510·PAYLOAD·🇺🇸 United States

Lançado Sep 1, 1970 de Cape Canaveral Space Force Station

Loading…

Próximas Passagens (próximas 24 horas)

TLE

AtualizadoSource: Space-Track

Época: Sep 14, 2026, 10:50 UTC

1 04510U 70069A   26257.45169959  .00000073  00000-0  00000-0 0  9992
2 04510  10.6936 154.5442 1010094 112.6519 105.1761  1.00183117 25686

Acompanhe OPS 7329 em tempo real com AllMySat

Download on the App Store